[[{"header":{"parameterUnit":"m.s-1","parameterCategory":2,"la1":30.2991,"la2":30.254,"lo1":-89.0895,"lo2":-89.0444,"dy":0.0017,"dx":0.0017,"nx":28,"ny":28,"refTime":"2023-07-22T03:00:00:Z","depth":"0","parameterNumber":2,"parameterNumberName":"U-component_of_CURRENTS"},"data":[0,0,0,0,0,0,0,0,0,0,0,0,0,0,0,0,0,0,0,0,0,0,0,0,0,0,0,0,0,0,0,0,0,0,0,0,0,0,0,0,0,0,0,0,0,0,0,0,0,0,0,0,0,0,0,0,0,0,0.4666,0.4666,0,0.4498,0.4495,0.4492,0.4286,0.4284,0.4282,0.428,0.422,0.422,0.422,0,0,0,0,0,0,0,0,0,0,0,0,0,0.4674,0.4674,0.4666,0.4666,0.4665,0.4499,0.4495,0.4491,0.4286,0.4284,0.4281,0.4279,0.422,0.422,0.422,0,0,0,0,0,0,0,0,0,0,0,0,0,0.4592,0.4675,0.4667,0.4552,0.4542,0.4499,0.4495,0.449,0.4287,0.4284,0.4281,0.4278,0.422,0.422,0.422,0.4281,0,0,0.4221,0.4221,0,0,0,0,0,0,0,0,0.4597,0.459,0.457,0.456,0.4548,0.4422,0.4476,0.4431,0.4287,0.4369,0.428,0.4277,0.4309,0.4302,0.4255,0.4279,0.4276,0.4221,0.4221,0.4222,0.4222,0,0,0,0,0,0,0,0.4603,0.4596,0.4586,0.457,0.4557,0.4464,0.4449,0.4464,0.4349,0.4361,0.435,0.4354,0.4301,0.4255,0.4253,0.4275,0.4221,0.4222,0.4222,0.4222,0.4359,0.4362,0,0,0,0,0,0,0.4663,0.4602,0.4591,0.4582,0.4581,0.4468,0.445,0.4454,0.4346,0.4329,0.4357,0.4345,0.4256,0.4253,0.425,0.432,0.4222,0.4222,0.4222,0.4355,0.4359,0.4363,0,0,0,0,0,0,0.4663,0.4663,0.4598,0.4598,0.4586,0.4474,0.4478,0.4453,0.4409,0.4344,0.4325,0.4341,0.4253,0.425,0.4235,0.4316,0.4222,0.4222,0.4351,0.4357,0.4361,0.4459,0,0,0,0,0,0,0.4664,0.4664,0.4681,0.4603,0.4588,0.4589,0.4482,0.4452,0.4423,0.4406,0.4326,0.4315,0.4251,0.4235,0.4236,0.4315,0.4223,0.4347,0.4354,0.436,0.4451,0.4466,0.448,0,0,0,0,0,0.4665,0.4696,0.4683,0.4682,0.4618,0.4592,0.4574,0.4474,0.4426,0.4419,0.434,0.4318,0.4279,0.4236,0.4237,0.4318,0.4344,0.4352,0.4359,0.4445,0.4463,0.4479,0,0,0,0,0,0,0.4686,0.4678,0.4661,0.4683,0.4656,0.4563,0.4556,0.4502,0.4431,0.4414,0.4333,0.4318,0.4358,0.4327,0.4283,0.4382,0.4323,0.4331,0.4389,0.4406,0.442,0.4426,0.4223,0,0,0,0,0,0.4717,0.4746,0.4715,0.4734,0.4735,0.4658,0.4636,0.4578,0.4515,0.4476,0.4418,0.4385,0.4395,0.4383,0.4384,0.4419,0.4469,0.4485,0.45,0.4511,0.4521,0.4684,0.4714,0.4388,0.4388,0.4388,0,0,0.4729,0.4734,0.4745,0.4744,0.4712,0.4698,0.4632,0.4619,0.459,0.4495,0.4442,0.4444,0.4422,0.4449,0.4468,0.4423,0.4632,0.4521,0.4531,0.4534,0.4696,0.4727,0.4756,0.4394,0.4393,0.4392,0,0,0.4762,0.4783,0.4809,0.4802,0.4794,0.4749,0.4764,0.4696,0.4653,0.4627,0.4573,0.4611,0.4577,0.4581,0.4582,0.4693,0.4719,0.4711,0.4764,0.4923,0.4952,0.4977,0.5082,0.5116,0.4697,0.4697,0.4697,0,0.4762,0.4792,0.481,0.4824,0.481,0.4783,0.4775,0.4747,0.4672,0.4668,0.4629,0.4656,0.465,0.4713,0.4732,0.4731,0.4796,0.469,0.4943,0.4969,0.4994,0.5095,0.5131,0.4703,0.4702,0.4702,0.4701,0,0.48,0.4818,0.4839,0.4845,0.4843,0.4841,0.4821,0.4815,0.4783,0.4755,0.4818,0.4811,0.4825,0.4863,0.4813,0.4988,0.4972,0.496,0.4897,0.5033,0.513,0.5166,0.4711,0.4709,0.4707,0.4706,0,0,0.4767,0.4844,0.4839,0.4844,0.4847,0.4839,0.485,0.4846,0.4847,0.486,0.4886,0.4954,0.4979,0.4986,0.4989,0.511,0.5342,0.5096,0.5102,0.5193,0.5669,0.5591,0.5622,0.5376,0.5383,0.5388,0.5667,0,0.476,0.4801,0.483,0.4829,0.484,0.4842,0.4839,0.4851,0.4857,0.4884,0.4975,0.5009,0.5019,0.5038,0.518,0.5299,0.5442,0.5265,0.5528,0.5535,0.5446,0.5664,0.5414,0.5636,0.5702,0.5708,0.5712,0,0.4747,0.4782,0.4795,0.4822,0.4823,0.4812,0.4819,0.4821,0.4893,0.491,0.5012,0.5054,0.5234,0.522,0.5553,0.5437,0.5572,0.567,0.5683,0.56,0.5526,0.5513,0.5699,0.5499,0.5768,0.5763,0.5759,0,0.469,0.4736,0.4745,0.4751,0.4785,0.4783,0.4789,0.4828,0.483,0.4942,0.4972,0.5178,0.5271,0.5516,0.5702,0.5656,0.6056,0.6022,0.6087,0.608,0.5913,0.588,0.5929,0.6299,0.6298,0.6297,0.6297,0,0.4644,0.4643,0.4721,0.4719,0.4706,0.4753,0.4736,0.4771,0.4835,0.4852,0.4991,0.5055,0.5356,0.5574,0.5769,0.6043,0.6137,0.6155,0.6181,0.5937,0.5904,0.5753,0.5587,0.6308,0.6305,0.6303,0.6302,0,0.4555,0.4612,0.4621,0.4672,0.4676,0.4665,0.4674,0.4669,0.4752,0.4792,0.4832,0.5029,0.531,0.5584,0.5968,0.6102,0.6198,0.6435,0.6094,0.6077,0.5929,0.5775,0.5756,0.5609,0.6591,0.6591,0.6591,0,0.4514,0.4519,0.4564,0.4548,0.4557,0.4554,0.4534,0.4607,0.4607,0.4752,0.4769,0.503,0.5165,0.5691,0.5998,0.6365,0.6166,0.6322,0.6208,0.5936,0.5788,0.5602,0.5464,0.6031,0.6026,0.6023,0.602,0,0.4428,0.4444,0.4454,0.442,0.4399,0.4378,0.4374,0.4366,0.4454,0.4511,0.4613,0.4742,0.5194,0.5438,0.5893,0.6101,0.5961,0.6258,0.6093,0.5463,0.5151,0.5011,0.5791,0.5988,0.5991,0.5993,0.5995,0.5996,0.4346,0.4323,0.4323,0.4256,0.4232,0.4172,0.4098,0.4137,0.4138,0.4173,0.4399,0.4513,0.4879,0.5477,0.569,0.5805,0.5779,0.5692,0.557,0.5444,0.516,0.5846,0.5989,0.5992,0.5995,0.5997,0.5999,0,0.4226,0.4195,0.4148,0.4061,0.3942,0.3991,0.3944,0.3856,0.3806,0.3951,0.4033,0.4262,0.4523,0.4877,0.5189,0.5124,0.503,0.4978,0.463,0.4567,0.5302,0.513,0.4947,0.4948,0.4948,0.4948,0.4948,0.4948,0.4157,0.4067,0.4021,0.3779,0.3701,0.3522,0.346,0.3407,0.345,0.3452,0.3527,0.3702,0.4081,0.437,0.4458,0.4445,0.4133,0.3968,0.3986,0.4425,0.4481,0.4534,0.434,0.3996,0.3994,0.3145,0.3137,0.3131]},{"header":{"parameterUnit":"m.s-1","parameterCategory":2,"la1":30.2991,"la2":30.254,"lo1":-89.0895,"lo2":-89.0444,"dy":0.0017,"dx":0.0017,"nx":28,"ny":28,"refTime":"2023-07-22T03:00:00:Z","depth":"0","parameterNumber":3,"parameterNumberName":"V-component_of_CURRENTS"},"data":[0,0,0,0,0,0,0,0,0,0,0,0,0,0,0,0,0,0,0,0,0,0,0,0,0,0,0,0,0,0,0,0,0,0,0,0,0,0,0,0,0,0,0,0,0,0,0,0,0,0,0,0,0,0,0,0,0,0,0.0763,0.0762,0,0.0675,0.0674,0.0673,0.064,0.064,0.064,0.064,0.061,0.0609,0.0608,0,0,0,0,0,0,0,0,0,0,0,0,0,0.0918,0.0916,0.0763,0.0762,0.076,0.0675,0.0674,0.0673,0.064,0.064,0.064,0.064,0.061,0.0609,0.0608,0,0,0,0,0,0,0,0,0,0,0,0,0,0.0847,0.0915,0.0764,0.073,0.0726,0.0675,0.0674,0.0673,0.064,0.064,0.064,0.064,0.061,0.0609,0.0608,0.0606,0,0,0.0605,0.0605,0,0,0,0,0,0,0,0,0.0851,0.0842,0.0737,0.0732,0.0728,0.0664,0.0717,0.0652,0.0641,0.0678,0.064,0.064,0.0631,0.0628,0.0617,0.0605,0.0603,0.0605,0.0604,0.0604,0.0604,0,0,0,0,0,0,0,0.0856,0.0845,0.0733,0.0735,0.0729,0.0724,0.0714,0.0705,0.0661,0.0675,0.0671,0.0654,0.0629,0.0618,0.0617,0.0603,0.0605,0.0604,0.0604,0.0603,0.0583,0.0583,0,0,0,0,0,0,0.0856,0.085,0.0736,0.073,0.0785,0.0721,0.071,0.0689,0.066,0.0653,0.0654,0.0652,0.062,0.0618,0.0615,0.064,0.0604,0.0603,0.0603,0.0583,0.0583,0.0583,0,0,0,0,0,0,0.086,0.0847,0.0739,0.0785,0.077,0.0718,0.0694,0.0687,0.0669,0.0643,0.0638,0.0643,0.062,0.0617,0.0597,0.0637,0.0603,0.0602,0.0583,0.0583,0.0583,0.067,0,0,0,0,0,0,0.0865,0.0849,0.0845,0.0784,0.0767,0.0711,0.0694,0.0685,0.0657,0.0654,0.0632,0.0629,0.062,0.0598,0.0596,0.0635,0.0601,0.0582,0.0583,0.0583,0.0667,0.0673,0.0678,0,0,0,0,0,0.0871,0.0862,0.0846,0.0832,0.076,0.071,0.0702,0.0668,0.0657,0.0652,0.0629,0.0629,0.0598,0.0597,0.0594,0.0635,0.0582,0.0583,0.0583,0.0665,0.0672,0.0678,0,0,0,0,0,0,0.0898,0.0855,0.0837,0.0806,0.0763,0.0703,0.0695,0.0666,0.0644,0.0647,0.0622,0.0617,0.0618,0.06,0.06,0.0624,0.0594,0.0594,0.0657,0.0664,0.0669,0.0743,0.06,0,0,0,0,0,0.0908,0.091,0.0844,0.0821,0.0802,0.0749,0.0728,0.0703,0.0666,0.0656,0.0635,0.0621,0.0617,0.0618,0.0604,0.0614,0.0607,0.0637,0.0643,0.0648,0.0703,0.0705,0.0717,0.0583,0.0583,0.0583,0,0,0.0908,0.0887,0.0883,0.0832,0.0798,0.079,0.0737,0.0706,0.0719,0.0658,0.067,0.0635,0.0618,0.0631,0.0632,0.0624,0.0671,0.0648,0.0653,0.0707,0.0707,0.072,0.0732,0.0583,0.0583,0.0583,0,0,0.0915,0.0892,0.0897,0.0876,0.0834,0.0816,0.0806,0.0749,0.0746,0.0735,0.0706,0.07,0.0672,0.0688,0.069,0.0718,0.0693,0.0695,0.08,0.0799,0.0812,0.0823,0.079,0.0798,0.0708,0.0708,0.0708,0,0.0912,0.0911,0.0885,0.0884,0.088,0.0833,0.0835,0.0832,0.078,0.08,0.0753,0.0751,0.0721,0.0779,0.0785,0.0742,0.0715,0.0778,0.0811,0.0822,0.0832,0.0796,0.0804,0.0712,0.0712,0.0711,0.0711,0,0.0921,0.0927,0.0925,0.0933,0.0929,0.0919,0.091,0.0923,0.091,0.0906,0.0935,0.0888,0.09,0.0876,0.0842,0.0905,0.085,0.0811,0.0806,0.0852,0.0809,0.0815,0.0718,0.0717,0.0716,0.0714,0,0,0.0863,0.0926,0.092,0.0958,0.0957,0.0957,0.101,0.1042,0.11,0.1067,0.1133,0.1115,0.1091,0.1093,0.1043,0.1047,0.1061,0.0967,0.0965,0.0956,0.1033,0.0968,0.0967,0.1016,0.1019,0.1021,0.096,0,0.0863,0.0919,0.0942,0.0998,0.1022,0.1045,0.1104,0.1145,0.1169,0.1225,0.1222,0.1246,0.1175,0.1171,0.1173,0.11,0.1088,0.108,0.0973,0.0971,0.0927,0.0978,0.091,0.085,0.0966,0.0967,0.0968,0,0.0836,0.0895,0.096,0.1073,0.1084,0.1122,0.1236,0.1281,0.1371,0.1389,0.1437,0.1417,0.1453,0.1353,0.131,0.1301,0.119,0.1117,0.1111,0.1045,0.0921,0.0828,0.0856,0.0575,0.0977,0.0976,0.0976,0,0.0811,0.0898,0.0976,0.1001,0.1113,0.1168,0.1232,0.1328,0.1396,0.1496,0.1544,0.1578,0.1581,0.1503,0.137,0.1333,0.1292,0.121,0.105,0.1041,0.0968,0.095,0.0745,0.1172,0.1172,0.1173,0.1173,0,0.0795,0.085,0.098,0.1014,0.112,0.1191,0.1304,0.1378,0.1495,0.1596,0.1622,0.1691,0.1615,0.1579,0.1438,0.1288,0.1343,0.1106,0.1045,0.0987,0.0973,0.0712,0.0599,0.117,0.1171,0.1171,0.1172,0,0.075,0.0827,0.0915,0.1056,0.1104,0.1175,0.133,0.1427,0.1529,0.1662,0.1697,0.1778,0.1743,0.1642,0.1509,0.1363,0.1077,0.1137,0.1066,0.1,0.0584,0.048,0.0307,0.0229,0.0965,0.0963,0.0962,0,0.0763,0.0802,0.0929,0.0988,0.105,0.1173,0.1269,0.1412,0.1524,0.1712,0.1784,0.1813,0.1855,0.1668,0.1426,0.12,0.0994,0.0955,0.0885,0.0587,0.0426,0.0354,0.0298,0.0792,0.0789,0.0787,0.0785,0,0.079,0.0807,0.0879,0.098,0.1079,0.1213,0.1366,0.1459,0.1647,0.1777,0.1936,0.1991,0.1825,0.1619,0.132,0.1129,0.0765,0.09,0.062,0.0325,0.0211,0.0096,0.0774,0.0766,0.0768,0.0769,0.077,0.0771,0.0809,0.0841,0.0916,0.1003,0.1117,0.1274,0.1391,0.157,0.1763,0.2008,0.2029,0.2157,0.1795,0.14,0.1115,0.0505,0.0578,0.0287,0.0199,0.0162,0.0062,0.0694,0.0601,0.0602,0.0602,0.0603,0.0604,0,0.0848,0.088,0.096,0.108,0.12,0.1267,0.1484,0.1629,0.1861,0.2079,0.2226,0.2102,0.1621,0.1136,0.0341,-0.0117,-0.0232,-0.0369,-0.0511,-0.0521,0.0042,0.0004,-0.0257,-0.0257,-0.0256,-0.0256,-0.0256,-0.0255,0.0873,0.0931,0.0955,0.1141,0.1241,0.1443,0.157,0.1776,0.1967,0.2215,0.2313,0.2368,0.1945,0.0438,-0.0605,-0.082,-0.108,-0.1157,-0.124,-0.0932,-0.0878,-0.0828,-0.0895,-0.134,-0.1341,-0.1782,-0.1787,-0.1791]}],[{"header":{"parameterUnit":"m.s-1","parameterCategory":2,"la1":30.2991,"la2":30.254,"lo1":-89.0895,"lo2":-89.0444,"dy":0.0017,"dx":0.0017,"nx":28,"ny":28,"refTime":"2023-07-22T03:00:00:Z","depth":"2","parameterNumber":2,"parameterNumberName":"U-component_of_CURRENTS"},"data":[0,0,0,0,0,0,0,0,0,0,0,0,0,0,0,0,0,0,0,0,0,0,0,0,0,0,0,0,0,0,0,0,0,0,0,0,0,0,0,0,0,0,0,0,0,0,0,0,0,0,0,0,0,0,0,0,0,0,0.2648,0.2651,0,0.2848,0.285,0.2852,0.3027,0.3029,0.3032,0.3034,0.3094,0.3094,0.3093,0,0,0,0,0,0,0,0,0,0,0,0,0,0.2379,0.2383,0.2648,0.2651,0.2654,0.2848,0.285,0.2852,0.3026,0.3029,0.3032,0.3035,0.3095,0.3094,0.3093,0,0,0,0,0,0,0,0,0,0,0,0,0,0.2525,0.2384,0.2647,0.2767,0.278,0.2847,0.285,0.2853,0.3026,0.3029,0.3033,0.3036,0.3095,0.3094,0.3093,0.3016,0,0,0.309,0.309,0,0,0,0,0,0,0,0,0.2516,0.2534,0.2747,0.2759,0.2774,0.292,0.2778,0.2902,0.3025,0.2928,0.3034,0.3038,0.3023,0.3028,0.3054,0.3018,0.3021,0.309,0.309,0.3089,0.3089,0,0,0,0,0,0,0,0.2506,0.2526,0.2723,0.2749,0.2766,0.2798,0.2823,0.2802,0.2947,0.2937,0.2951,0.2979,0.303,0.3055,0.3056,0.3022,0.309,0.3089,0.3089,0.3088,0.3088,0.3088,0,0,0,0,0,0,0.2489,0.2517,0.2717,0.2729,0.2656,0.28,0.2828,0.2866,0.2951,0.297,0.2975,0.2986,0.3054,0.3057,0.3059,0.3134,0.3089,0.3088,0.3088,0.3087,0.3088,0.3088,0,0,0,0,0,0,0.2482,0.2505,0.2709,0.263,0.2659,0.2802,0.2843,0.2868,0.2966,0.2983,0.2999,0.3057,0.3057,0.306,0.3113,0.3131,0.3088,0.3087,0.3087,0.3087,0.3088,0.3179,0,0,0,0,0,0,0.2473,0.2501,0.2524,0.2629,0.2663,0.2733,0.2841,0.2869,0.2975,0.2993,0.3054,0.3061,0.306,0.3114,0.3112,0.3129,0.3086,0.3086,0.3087,0.3088,0.3175,0.3183,0.3189,0,0,0,0,0,0.2463,0.242,0.2524,0.2548,0.269,0.2731,0.2749,0.286,0.2976,0.2973,0.3077,0.3063,0.3118,0.3115,0.3111,0.3129,0.3085,0.3087,0.3088,0.3172,0.3181,0.3189,0,0,0,0,0,0,0.2273,0.2439,0.2553,0.256,0.2657,0.2762,0.2767,0.289,0.2975,0.3005,0.3078,0.3087,0.3137,0.3113,0.311,0.3129,0.3094,0.3094,0.3159,0.3167,0.3174,0.3191,0.3086,0,0,0,0,0,0.226,0.2303,0.2457,0.2467,0.2517,0.2677,0.2722,0.2804,0.2894,0.2943,0.3035,0.3092,0.3122,0.3138,0.3142,0.315,0.3119,0.3153,0.3161,0.3167,0.3177,0.319,0.32,0.3092,0.3092,0.3092,0,0,0.2212,0.2287,0.2331,0.2436,0.2528,0.2576,0.271,0.2758,0.2823,0.2922,0.3046,0.3119,0.3132,0.3162,0.3177,0.3156,0.3169,0.3168,0.3174,0.3181,0.3193,0.3203,0.3213,0.3093,0.3093,0.3093,0,0,0.2092,0.2192,0.2211,0.2275,0.2396,0.2485,0.2523,0.2688,0.2785,0.2888,0.3002,0.3101,0.315,0.319,0.3204,0.3237,0.3211,0.3247,0.3295,0.3308,0.3318,0.3326,0.325,0.3251,0.3245,0.3246,0.3246,0,0.2084,0.2099,0.2207,0.2219,0.229,0.2461,0.2504,0.2581,0.276,0.2877,0.2912,0.3141,0.3145,0.3239,0.3272,0.3251,0.325,0.327,0.332,0.3328,0.3335,0.3256,0.3256,0.325,0.325,0.3249,0.3249,0,0.1996,0.2019,0.2006,0.2133,0.2185,0.2224,0.2372,0.2478,0.2651,0.2805,0.2993,0.3063,0.3227,0.3227,0.3263,0.335,0.3327,0.3335,0.3306,0.3352,0.3264,0.3262,0.3257,0.3255,0.3254,0.3252,0,0,0.2061,0.1996,0.2025,0.2042,0.2167,0.2202,0.2293,0.2483,0.261,0.2796,0.2994,0.3099,0.3276,0.3303,0.3388,0.3398,0.3422,0.3418,0.3416,0.3353,0.3424,0.3246,0.3225,0.3486,0.3488,0.3489,0.3324,0,0.2052,0.2009,0.201,0.2024,0.2036,0.2177,0.2254,0.2421,0.2603,0.2807,0.2984,0.3161,0.326,0.3371,0.3426,0.3449,0.3434,0.3463,0.338,0.3374,0.3222,0.3224,0.3111,0.2945,0.3323,0.3322,0.3322,0,0.2057,0.2012,0.2016,0.199,0.2031,0.2076,0.2291,0.2373,0.2647,0.2798,0.3061,0.3234,0.3401,0.3418,0.3499,0.3544,0.3504,0.3465,0.3458,0.3266,0.3196,0.2969,0.2927,0.3319,0.3319,0.3319,0.3319,0,0.2089,0.2041,0.2046,0.2055,0.2064,0.2137,0.2211,0.2436,0.2555,0.2843,0.2983,0.3236,0.3361,0.3413,0.3456,0.3497,0.3444,0.346,0.323,0.3213,0.3078,0.3047,0.3437,0.3437,0.3438,0.3438,0.3438,0,0.2095,0.2078,0.2057,0.2057,0.2093,0.2132,0.2265,0.2378,0.2592,0.2771,0.3028,0.3181,0.3378,0.3436,0.3439,0.3338,0.344,0.3223,0.3173,0.3095,0.3069,0.338,0.3376,0.3432,0.3433,0.3434,0.3435,0,0.206,0.2075,0.2036,0.2062,0.2089,0.2129,0.2254,0.2347,0.2548,0.2773,0.2883,0.3149,0.3236,0.332,0.3323,0.3259,0.3174,0.3087,0.2941,0.2877,0.2924,0.2926,0.2807,0.28,0.2794,0.2789,0.2784,0,0.1997,0.1983,0.2038,0.2063,0.2071,0.214,0.2207,0.2355,0.2465,0.2758,0.2857,0.3022,0.3148,0.3052,0.2993,0.2878,0.2996,0.2609,0.2642,0.2903,0.2867,0.2879,0.2889,0.2476,0.2469,0.2464,0.246,0,0.1838,0.1923,0.191,0.199,0.2056,0.2115,0.222,0.2282,0.2506,0.2676,0.2876,0.2971,0.2943,0.282,0.2629,0.2541,0.2635,0.2485,0.2828,0.2647,0.2576,0.2545,0.257,0.2412,0.2417,0.242,0.2423,0.2425,0.1763,0.1722,0.1802,0.1911,0.1989,0.2116,0.2178,0.2295,0.2453,0.2699,0.2772,0.2817,0.2685,0.2376,0.2249,0.2152,0.228,0.2175,0.2199,0.2227,0.2212,0.2134,0.1879,0.1881,0.1882,0.1883,0.1884,0,0.1628,0.1674,0.1713,0.1848,0.197,0.2087,0.2214,0.2244,0.2418,0.2542,0.2693,0.2334,0.2189,0.2097,0.1902,0.1756,0.181,0.167,0.1811,0.1857,0.1898,0.1876,0.1448,0.1447,0.1445,0.1444,0,0,0.155,0.1526,0.1589,0.1822,0.2001,0.2135,0.2247,0.2275,0.2288,0.2262,0.2262,0.2282,0.2106,0.181,0.1688,0.1602,0.1735,0.1523,0.1881,0.2105,0.2147,0.2188,0.2201,0,0,0,0,0]},{"header":{"parameterUnit":"m.s-1","parameterCategory":2,"la1":30.2991,"la2":30.254,"lo1":-89.0895,"lo2":-89.0444,"dy":0.0017,"dx":0.0017,"nx":28,"ny":28,"refTime":"2023-07-22T03:00:00:Z","depth":"2","parameterNumber":3,"parameterNumberName":"V-component_of_CURRENTS"},"data":[0,0,0,0,0,0,0,0,0,0,0,0,0,0,0,0,0,0,0,0,0,0,0,0,0,0,0,0,0,0,0,0,0,0,0,0,0,0,0,0,0,0,0,0,0,0,0,0,0,0,0,0,0,0,0,0,0,0,-0.032,-0.032,0,-0.0256,-0.0254,-0.0253,-0.0092,-0.009,-0.0088,-0.0085,-0.0101,-0.0103,-0.0106,0,0,0,0,0,0,0,0,0,0,0,0,0,-0.0238,-0.0239,-0.032,-0.032,-0.0321,-0.0256,-0.0254,-0.0252,-0.0093,-0.009,-0.0087,-0.0084,-0.01,-0.0103,-0.0106,0,0,0,0,0,0,0,0,0,0,0,0,0,-0.0223,-0.024,-0.032,-0.0242,-0.0235,-0.0257,-0.0254,-0.0252,-0.0093,-0.009,-0.0086,-0.0083,-0.0099,-0.0103,-0.0106,-0.02,0,0,-0.0118,-0.012,0,0,0,0,0,0,0,0,-0.0224,-0.0224,-0.0253,-0.0247,-0.024,-0.0189,-0.0231,-0.0242,-0.0094,-0.0135,-0.0085,-0.0081,-0.0148,-0.0148,-0.0125,-0.02,-0.0201,-0.0119,-0.0121,-0.0122,-0.0124,0,0,0,0,0,0,0,-0.0225,-0.0226,-0.0283,-0.0254,-0.0246,-0.0188,-0.0181,-0.0231,-0.0154,-0.0131,-0.0122,-0.0135,-0.0143,-0.0122,-0.0125,-0.0201,-0.0118,-0.0122,-0.0124,-0.0126,-0.0284,-0.0285,0,0,0,0,0,0,-0.0265,-0.0228,-0.0285,-0.0282,-0.0236,-0.0194,-0.0185,-0.0199,-0.0151,-0.0144,-0.0138,-0.0128,-0.0117,-0.0121,-0.0125,-0.0138,-0.0122,-0.0126,-0.0128,-0.0282,-0.0284,-0.0286,0,0,0,0,0,0,-0.0263,-0.027,-0.0288,-0.0262,-0.0262,-0.02,-0.0216,-0.02,-0.0148,-0.0158,-0.0148,-0.01,-0.0114,-0.012,-0.0146,-0.0142,-0.0128,-0.0131,-0.028,-0.0282,-0.0285,-0.0227,0,0,0,0,0,0,-0.0261,-0.027,-0.0272,-0.0265,-0.0265,-0.0277,-0.022,-0.0202,-0.0169,-0.0153,-0.0125,-0.0123,-0.0112,-0.0141,-0.015,-0.0147,-0.0134,-0.0277,-0.0281,-0.0284,-0.0227,-0.0228,-0.0229,0,0,0,0,0,-0.0258,-0.0271,-0.0273,-0.0279,-0.0277,-0.0278,-0.027,-0.0207,-0.0171,-0.0145,-0.0134,-0.0122,-0.017,-0.0146,-0.0156,-0.0153,-0.0275,-0.028,-0.0284,-0.0226,-0.0228,-0.0229,0,0,0,0,0,0,-0.0234,-0.0258,-0.0258,-0.0277,-0.0275,-0.0254,-0.0242,-0.0208,-0.0176,-0.0169,-0.015,-0.015,-0.017,-0.0194,-0.0167,-0.0216,-0.0221,-0.0228,-0.0174,-0.0176,-0.0177,-0.0097,-0.0138,0,0,0,0,0,-0.0244,-0.0246,-0.0272,-0.028,-0.0297,-0.0272,-0.0261,-0.023,-0.0218,-0.0194,-0.0167,-0.0176,-0.0207,-0.0211,-0.0237,-0.0276,-0.0312,-0.0285,-0.0286,-0.0286,-0.0234,-0.0349,-0.0355,-0.03,-0.03,-0.03,0,0,-0.0244,-0.0251,-0.0256,-0.0274,-0.0275,-0.0274,-0.0251,-0.0248,-0.0222,-0.0217,-0.0163,-0.0182,-0.0223,-0.024,-0.0253,-0.0249,-0.0324,-0.0292,-0.0291,-0.0237,-0.0354,-0.0359,-0.0363,-0.0303,-0.0302,-0.0302,0,0,-0.023,-0.0259,-0.0255,-0.026,-0.0274,-0.0269,-0.0271,-0.0251,-0.0219,-0.0219,-0.0201,-0.0212,-0.0245,-0.0244,-0.0265,-0.0306,-0.0331,-0.0322,-0.0249,-0.0363,-0.0367,-0.0371,-0.0423,-0.0432,-0.0315,-0.0315,-0.0315,0,-0.0223,-0.0221,-0.0251,-0.0247,-0.0236,-0.0267,-0.0249,-0.0253,-0.0221,-0.0175,-0.0201,-0.0197,-0.0247,-0.0243,-0.0243,-0.0301,-0.0344,-0.0233,-0.036,-0.0365,-0.037,-0.0422,-0.0433,-0.0313,-0.0313,-0.0314,-0.0314,0,-0.0203,-0.0199,-0.0207,-0.0204,-0.0197,-0.0199,-0.0225,-0.0207,-0.0195,-0.0147,-0.0128,-0.0196,-0.0155,-0.0215,-0.024,-0.0273,-0.0286,-0.0353,-0.0343,-0.0371,-0.0425,-0.0437,-0.031,-0.0311,-0.0311,-0.0312,0,0,-0.0202,-0.0187,-0.0188,-0.0156,-0.017,-0.0157,-0.0158,-0.0116,-0.0055,-0.0073,0.0027,-0.0068,-0.003,-0.0053,-0.0099,-0.0205,-0.0307,-0.027,-0.0278,-0.0291,-0.0507,-0.0444,-0.0451,-0.0398,-0.04,-0.0401,-0.0529,0,-0.0171,-0.0122,-0.0121,-0.0071,-0.006,-0.0073,-0.0039,-0.0003,0.0018,0.01,0.0037,0.0092,0.0004,0.0028,-0.0085,-0.0228,-0.0334,-0.0261,-0.05,-0.0505,-0.0424,-0.0462,-0.0456,-0.0563,-0.0541,-0.0543,-0.0544,0,-0.0158,-0.0116,-0.0053,0.003,0.0036,0.0069,0.0149,0.0176,0.0245,0.0273,0.0318,0.0321,0.0267,0.0131,-0.0112,-0.0053,-0.0252,-0.0416,-0.0427,-0.0379,-0.0464,-0.0537,-0.0586,-0.0565,-0.0563,-0.0562,-0.056,0,-0.0123,-0.0066,0.0009,0.0024,0.0092,0.0138,0.0184,0.0259,0.0331,0.0411,0.0497,0.0449,0.0434,0.0179,-0.0076,-0.0103,-0.0389,-0.0485,-0.0619,-0.0616,-0.0656,-0.0651,-0.071,-0.071,-0.071,-0.071,-0.0709,0,-0.0086,-0.0031,0.0032,0.0065,0.0174,0.0207,0.034,0.0373,0.0484,0.0629,0.0619,0.0692,0.0431,0.0285,-0.0011,-0.0298,-0.0341,-0.0576,-0.0646,-0.0635,-0.0628,-0.0665,-0.0658,-0.0714,-0.0713,-0.0712,-0.0712,0,-0.0065,-0.0021,0.0047,0.0137,0.0184,0.0254,0.0423,0.0538,0.0616,0.0784,0.0833,0.0865,0.0696,0.042,0.0023,-0.0185,-0.0507,-0.0627,-0.0541,-0.0596,-0.0673,-0.0662,-0.0763,-0.0761,-0.076,-0.076,-0.0759,0,-0.003,-0.0001,0.0084,0.0153,0.02,0.0328,0.0452,0.0576,0.0714,0.0892,0.0993,0.0946,0.0931,0.0461,0.0057,-0.0386,-0.049,-0.0635,-0.0697,-0.062,-0.068,-0.067,-0.0661,-0.0749,-0.0748,-0.0747,-0.0747,0,0.0017,0.0019,0.0077,0.0205,0.033,0.05,0.0681,0.0803,0.0983,0.1129,0.1288,0.1287,0.0926,0.0534,0.001,-0.0287,-0.0543,-0.0631,-0.063,-0.07,-0.0609,-0.0666,-0.0658,-0.0742,-0.0742,-0.0743,-0.0743,-0.0743,0.0051,0.0084,0.0159,0.0287,0.0449,0.0688,0.0846,0.1056,0.1291,0.1528,0.1473,0.1424,0.0928,0.0258,-0.0127,-0.0473,-0.0513,-0.0698,-0.0701,-0.0704,-0.0643,-0.0552,-0.0661,-0.0661,-0.0661,-0.0661,-0.0661,0,0.0119,0.0172,0.0274,0.0463,0.0675,0.075,0.1034,0.1208,0.1496,0.1595,0.1696,0.12,0.0761,0.0267,-0.0253,-0.0584,-0.0625,-0.0662,-0.0693,-0.0697,-0.0701,-0.064,-0.0658,-0.0658,-0.0658,-0.0658,0,0,0.0184,0.0283,0.033,0.0656,0.0813,0.1114,0.1284,0.1509,0.1597,0.1716,0.163,0.1398,0.0734,0.032,-0.013,-0.0366,-0.0432,-0.0394,-0.0377,-0.0367,-0.0365,-0.0718,-0.0627,0,0,0,0,0]}],[{"header":{"parameterUnit":"m.s-1","parameterCategory":2,"la1":30.2991,"la2":30.254,"lo1":-89.0895,"lo2":-89.0444,"dy":0.0017,"dx":0.0017,"nx":28,"ny":28,"refTime":"2023-07-22T03:00:00:Z","depth":"4","parameterNumber":2,"parameterNumberName":"U-component_of_CURRENTS"},"data":[0,0,0,0,0,0,0,0,0,0,0,0,0,0,0,0,0,0,0,0,0,0,0,0,0,0,0,0,0,0,0,0,0,0,0,0,0,0,0,0,0,0,0,0,0,0,0,0,0,0,0,0,0,0,0,0,0,0,-0.0072,-0.0072,0,-0.0099,-0.0101,-0.0102,-0.0184,-0.0185,-0.0186,-0.0186,-0.0101,-0.0099,-0.0096,0,0,0,0,0,0,0,0,0,0,0,0,0,-0.0017,-0.0019,-0.0072,-0.0072,-0.0071,-0.0099,-0.0101,-0.0102,-0.0184,-0.0185,-0.0186,-0.0187,-0.0102,-0.0099,-0.0095,0,0,0,0,0,0,0,0,0,0,0,0,0,-0.0054,-0.002,-0.0073,-0.0106,-0.0109,-0.0099,-0.0101,-0.0103,-0.0184,-0.0185,-0.0186,-0.0187,-0.0104,-0.0099,-0.0095,-0.0047,0,0,-0.0082,-0.008,0,0,0,0,0,0,0,0,-0.0052,-0.0057,-0.0102,-0.0104,-0.0106,-0.0129,-0.0049,-0.0074,-0.0184,-0.0168,-0.0186,-0.0188,-0.0091,-0.0088,-0.011,-0.0043,-0.0039,-0.0081,-0.0079,-0.0077,-0.0075,0,0,0,0,0,0,0,-0.0049,-0.0056,-0.0095,-0.0101,-0.0103,-0.0093,-0.0102,-0.0056,-0.0131,-0.017,-0.0173,-0.0156,-0.0094,-0.0114,-0.0108,-0.0038,-0.0081,-0.0077,-0.0075,-0.0073,0.0001,0.0001,0,0,0,0,0,0,-0.0025,-0.0054,-0.0094,-0.0095,-0.0067,-0.0093,-0.0103,-0.0131,-0.0134,-0.0133,-0.0155,-0.016,-0.0121,-0.0113,-0.0105,-0.0069,-0.0077,-0.0073,-0.007,0.0002,0.0001,0.0001,0,0,0,0,0,0,-0.0024,-0.003,-0.0093,-0.0062,-0.0068,-0.0092,-0.0123,-0.013,-0.014,-0.0122,-0.0122,-0.0154,-0.0122,-0.0111,-0.0078,-0.0065,-0.0071,-0.0067,0.0003,0.0002,0.0001,0.0018,0,0,0,0,0,0,-0.0024,-0.0031,-0.0045,-0.0063,-0.0069,-0.0073,-0.012,-0.013,-0.0123,-0.013,-0.012,-0.0115,-0.0122,-0.0084,-0.0073,-0.0059,-0.0063,0.0004,0.0002,0.0001,0.0018,0.0018,0.0017,0,0,0,0,0,-0.0022,-0.003,-0.0047,-0.0051,-0.0089,-0.007,-0.0074,-0.0101,-0.0121,-0.0118,-0.0131,-0.0115,-0.0085,-0.008,-0.0067,-0.0052,0.0004,0.0003,0.0001,0.0019,0.0018,0.0017,0,0,0,0,0,0,-0.0013,-0.0039,-0.0058,-0.0076,-0.0064,-0.008,-0.0074,-0.0085,-0.0096,-0.0101,-0.0104,-0.0099,-0.0069,-0.0063,-0.0058,-0.0041,-0.0044,-0.0043,-0.0035,-0.0036,-0.0036,-0.0022,-0.006,0,0,0,0,0,-0.0014,-0.003,-0.0038,-0.0044,-0.0042,-0.0055,-0.005,-0.0061,-0.0064,-0.0073,-0.0065,-0.0068,-0.0066,-0.0053,-0.0042,-0.0009,-0.0005,-0.0001,-0.0001,-0.0001,0.0015,-0.0014,-0.0015,-0.0004,-0.0004,-0.0004,0,0,-0.0015,-0.0019,-0.0034,-0.0041,-0.0045,-0.003,-0.0059,-0.004,-0.0025,-0.0052,-0.0035,-0.005,-0.0057,-0.0047,-0.0033,-0.0037,0.0003,-0.0003,-0.0003,0.0013,-0.0016,-0.0016,-0.0017,-0.0005,-0.0005,-0.0005,0,0,0.0007,-0.0024,-0.0027,-0.0015,0.0006,0.0005,0.002,0.0016,0.0009,0.0035,-0.0004,-0.0012,0.0015,-0.0012,-0.0017,-0.0004,0.0005,-0.0008,0.0007,-0.0022,-0.0023,-0.0023,0.0012,0.0014,-0.0013,-0.0013,-0.0013,0,0.0006,-0.0001,-0.0015,0.0003,0.0021,0.0025,0.0045,0.005,0.006,0.0062,0.005,0.0027,0.003,0.0015,-0.0002,0.0002,-0.0003,0.0013,-0.0021,-0.0022,-0.0023,0.0013,0.0016,-0.0013,-0.0013,-0.0013,-0.0013,0,0.0023,0.0029,0.0042,0.0051,0.0071,0.0098,0.0113,0.0126,0.0128,0.0127,0.0125,0.0093,0.007,0.006,0.0038,0.0019,0.0025,-0.0013,-0.0014,-0.0022,0.0016,0.0018,-0.0012,-0.0012,-0.0012,-0.0012,0,0,-0.0018,0.0035,0.0035,0.0062,0.0098,0.0118,0.0152,0.0175,0.0181,0.0186,0.0182,0.016,0.0124,0.0112,0.0068,0.004,0.0038,0.0007,0.0005,0.0054,0.0013,0.0092,0.0102,-0.0024,-0.0024,-0.0024,0.0055,0,-0.0004,0.004,0.006,0.0117,0.0146,0.0165,0.0185,0.0211,0.0223,0.0224,0.0197,0.0179,0.015,0.0112,0.0085,0.0037,0.0039,0.0024,0.0005,0.0006,0.0084,0.0105,-0.0026,0.0057,0.0057,0.0058,0.0058,0,-0.0006,0.0035,0.008,0.0149,0.0155,0.0183,0.021,0.0231,0.0241,0.0242,0.0225,0.0202,0.0171,0.0131,0.0091,0.0074,0.0058,0.0033,0.0034,0.0105,0.0088,0.0056,0.0062,0.0062,0.0061,0.0061,0.0061,0,-0.0021,0.0049,0.0091,0.0113,0.0178,0.0192,0.021,0.0228,0.0247,0.0241,0.0252,0.0212,0.0195,0.0146,0.0132,0.0087,0.011,0.0038,0.0117,0.0124,0.0021,0.0021,0.0032,0.0032,0.0032,0.0032,0.0031,0,-0.0012,0.0025,0.0086,0.011,0.0152,0.0183,0.0205,0.0219,0.0232,0.0277,0.0245,0.0262,0.0189,0.0202,0.0159,0.0182,0.014,0.0149,0.0146,0.0031,0.003,0.0026,0.0024,0.0035,0.0034,0.0033,0.0033,0,-0.0023,0.0013,0.0076,0.0136,0.0153,0.0176,0.0218,0.0239,0.0242,0.0298,0.0299,0.0305,0.0312,0.0297,0.025,0.0246,0.0233,0.0259,0.0216,0.0204,0.0259,0.0257,0.0323,0.0327,0.0329,0.0332,0.0334,0,-0.0026,0.0004,0.0081,0.0122,0.0155,0.0189,0.0217,0.0237,0.0282,0.034,0.0385,0.0403,0.0414,0.044,0.0382,0.0366,0.0349,0.0375,0.0247,0.0297,0.0287,0.028,0.0274,0.0338,0.0339,0.034,0.034,0,-0.0019,0.0003,0.0052,0.0131,0.0184,0.0239,0.0292,0.0314,0.0367,0.0392,0.0477,0.0487,0.0524,0.0479,0.0511,0.0472,0.0356,0.0403,0.0394,0.0273,0.0316,0.0301,0.0292,0.035,0.0349,0.0348,0.0347,0,-0.0031,0.001,0.0073,0.0148,0.0223,0.0289,0.0297,0.0378,0.0413,0.0498,0.053,0.0543,0.0555,0.0541,0.0548,0.0548,0.0493,0.0465,0.0451,0.044,0.0434,0.0502,0.0615,0,0,0,0,0,-0.0043,0.0021,0.0091,0.0175,0.0252,0.0293,0.037,0.038,0.0436,0.0521,0.0531,0.0572,0.0587,0.0563,0.0573,0.0542,0.0465,0.0551,0.0418,0.0405,0.0393,0.0371,0,0,0,0,0,0,-0.0041,0.003,0.0089,0.0194,0.0247,0.0327,0.0369,0.0401,0.0446,0.0503,0.0498,0.057,0.0553,0.0574,0.0565,0.0565,0.0483,0.0566,0.0567,0.0411,0.0401,0.0392,0.0365,0,0,0,0,0]},{"header":{"parameterUnit":"m.s-1","parameterCategory":2,"la1":30.2991,"la2":30.254,"lo1":-89.0895,"lo2":-89.0444,"dy":0.0017,"dx":0.0017,"nx":28,"ny":28,"refTime":"2023-07-22T03:00:00:Z","depth":"4","parameterNumber":3,"parameterNumberName":"V-component_of_CURRENTS"},"data":[0,0,0,0,0,0,0,0,0,0,0,0,0,0,0,0,0,0,0,0,0,0,0,0,0,0,0,0,0,0,0,0,0,0,0,0,0,0,0,0,0,0,0,0,0,0,0,0,0,0,0,0,0,0,0,0,0,0,0.023,0.0229,0,0.01,0.0098,0.0096,-0.0068,-0.007,-0.0072,-0.0074,-0.0268,-0.0271,-0.0274,0,0,0,0,0,0,0,0,0,0,0,0,0,0.0294,0.0293,0.023,0.0229,0.0228,0.01,0.0098,0.0095,-0.0068,-0.007,-0.0073,-0.0075,-0.0267,-0.027,-0.0274,0,0,0,0,0,0,0,0,0,0,0,0,0,0.0219,0.0293,0.0231,0.0136,0.0127,0.01,0.0097,0.0095,-0.0067,-0.0071,-0.0074,-0.0076,-0.0265,-0.027,-0.0275,-0.0244,0,0,-0.029,-0.0292,0,0,0,0,0,0,0,0,0.0224,0.0216,0.0151,0.0143,0.0132,0.0034,0.0049,-0.002,-0.0067,-0.0,-0.0074,-0.0078,-0.0166,-0.0179,-0.0205,-0.0253,-0.0261,-0.029,-0.0293,-0.0295,-0.0297,0,0,0,0,0,0,0,0.0229,0.0221,0.0172,0.015,0.0139,0.0085,0.0071,0.0035,-0.007,-0.0006,-0.0017,-0.0021,-0.0173,-0.02,-0.0211,-0.0264,-0.029,-0.0294,-0.0297,-0.0299,-0.0381,-0.038,0,0,0,0,0,0,0.0264,0.0226,0.0176,0.0169,0.0178,0.0087,0.0071,0.0064,-0.0069,-0.009,-0.0018,-0.0028,-0.019,-0.0205,-0.0218,-0.0276,-0.0295,-0.03,-0.0303,-0.0382,-0.0381,-0.038,0,0,0,0,0,0,0.0266,0.0261,0.0182,0.0199,0.0186,0.009,0.0083,0.0063,0.0017,-0.0076,-0.01,-0.0044,-0.0193,-0.0212,-0.0287,-0.0282,-0.0302,-0.0306,-0.0382,-0.0381,-0.038,-0.0336,0,0,0,0,0,0,0.0268,0.0262,0.0268,0.0202,0.0187,0.0175,0.0086,0.0063,0.0024,0.0009,-0.0105,-0.0126,-0.0197,-0.028,-0.0292,-0.0289,-0.031,-0.0383,-0.0382,-0.0381,-0.0338,-0.0333,-0.0329,0,0,0,0,0,0.0271,0.0286,0.0269,0.0263,0.0199,0.0178,0.0165,0.0081,0.0026,0.0024,-0.0084,-0.0124,-0.0279,-0.0284,-0.0298,-0.0296,-0.0384,-0.0382,-0.0381,-0.034,-0.0334,-0.0329,0,0,0,0,0,0,0.0301,0.027,0.0249,0.025,0.0227,0.0152,0.0146,0.0091,0.0008,-0.002,-0.0126,-0.0153,-0.0215,-0.025,-0.0253,-0.0311,-0.0331,-0.0332,-0.0295,-0.029,-0.0285,-0.0292,-0.0314,0,0,0,0,0,0.0323,0.0336,0.0293,0.0301,0.0294,0.0224,0.0203,0.0151,0.0075,0.0033,-0.0054,-0.0139,-0.021,-0.0249,-0.0308,-0.0337,-0.0369,-0.0339,-0.0334,-0.033,-0.0343,-0.0408,-0.0411,-0.0374,-0.0374,-0.0374,0,0,0.0335,0.0328,0.0329,0.0312,0.0283,0.0269,0.0201,0.0181,0.0151,0.0031,-0.0046,-0.0126,-0.0214,-0.0269,-0.0296,-0.0306,-0.0344,-0.0328,-0.0325,-0.034,-0.0406,-0.041,-0.0414,-0.0373,-0.0373,-0.0373,0,0,0.0367,0.0366,0.0378,0.0367,0.0346,0.0312,0.0312,0.0239,0.019,0.0132,0.002,-0.0063,-0.0147,-0.0233,-0.0281,-0.0273,-0.0319,-0.0277,-0.0266,-0.0327,-0.0332,-0.0336,-0.0328,-0.0333,-0.0274,-0.0274,-0.0274,0,0.037,0.0383,0.0379,0.0383,0.0367,0.0334,0.032,0.029,0.0194,0.0139,0.0121,-0.0065,-0.013,-0.0239,-0.0251,-0.0265,-0.0293,-0.0284,-0.0324,-0.0329,-0.0335,-0.0326,-0.0332,-0.0272,-0.0272,-0.0272,-0.0273,0,0.0399,0.0406,0.0419,0.0413,0.0403,0.04,0.0362,0.0324,0.0271,0.0213,0.0107,0.0008,-0.0121,-0.013,-0.0198,-0.0275,-0.0276,-0.0312,-0.0342,-0.0336,-0.0326,-0.0333,-0.0269,-0.0269,-0.027,-0.0271,0,0,0.0392,0.0424,0.0423,0.0413,0.0411,0.0391,0.0371,0.0313,0.0242,0.0199,0.0099,0.0001,-0.0076,-0.0135,-0.022,-0.0266,-0.0306,-0.0309,-0.0313,-0.0306,-0.0405,-0.041,-0.0418,-0.0368,-0.037,-0.0372,-0.0363,0,0.04,0.0409,0.0422,0.0414,0.0407,0.0376,0.0341,0.0286,0.0229,0.0137,0.0068,-0.0046,-0.0065,-0.0158,-0.02,-0.0311,-0.0331,-0.0302,-0.0407,-0.0409,-0.0423,-0.0429,-0.0378,-0.0368,-0.037,-0.0371,-0.0372,0,0.0414,0.0414,0.0408,0.0378,0.0364,0.0348,0.0251,0.0211,0.0113,0.0058,-0.0031,-0.01,-0.0195,-0.0205,-0.032,-0.0311,-0.0353,-0.0393,-0.0395,-0.0431,-0.043,-0.0389,-0.0384,-0.0383,-0.0382,-0.0382,-0.0381,0,0.0398,0.0399,0.0389,0.0384,0.0348,0.0307,0.0263,0.0169,0.0107,-0.0011,-0.007,-0.0171,-0.0249,-0.0309,-0.0379,-0.0374,-0.0479,-0.0481,-0.0497,-0.0495,-0.0511,-0.0507,-0.0543,-0.0543,-0.0543,-0.0543,-0.0544,0,0.0395,0.0384,0.0375,0.0361,0.03,0.0274,0.0178,0.0111,0.0015,-0.0057,-0.0127,-0.02,-0.0291,-0.0355,-0.0392,-0.0462,-0.0486,-0.05,-0.0514,-0.0481,-0.0474,-0.0512,-0.0508,-0.0543,-0.0543,-0.0543,-0.0543,0,0.0381,0.0386,0.037,0.0325,0.03,0.0244,0.015,0.0072,-0.0012,-0.0104,-0.014,-0.0241,-0.0327,-0.0378,-0.0485,-0.0493,-0.0554,-0.0568,-0.0487,-0.0496,-0.0506,-0.05,-0.0573,-0.0573,-0.0574,-0.0574,-0.0574,0,0.0366,0.0364,0.0341,0.0309,0.0288,0.0208,0.0144,0.0057,-0.0,-0.012,-0.0153,-0.0264,-0.0321,-0.0432,-0.0506,-0.0558,-0.057,-0.0577,-0.0571,-0.0513,-0.0519,-0.0512,-0.0505,-0.0575,-0.0575,-0.0576,-0.0576,0,0.0326,0.0339,0.0318,0.0275,0.0222,0.0163,0.0087,0.0054,-0.0038,-0.0098,-0.0176,-0.0255,-0.0346,-0.0429,-0.0488,-0.0526,-0.0567,-0.0582,-0.058,-0.0575,-0.0517,-0.0521,-0.0514,-0.0577,-0.0577,-0.0577,-0.0577,0,0.0282,0.0272,0.0263,0.0222,0.0179,0.0139,0.0094,0.0035,-0.0027,-0.0115,-0.0139,-0.0245,-0.0316,-0.0413,-0.0465,-0.0515,-0.0515,-0.0509,-0.0512,-0.0511,-0.051,-0.0428,-0.0482,0,0,0,0,0,0.0222,0.0224,0.0194,0.0164,0.0147,0.0131,0.0065,0.003,-0.002,-0.0063,-0.0098,-0.0174,-0.0292,-0.0362,-0.0407,-0.0471,-0.0525,-0.0527,-0.0518,-0.0587,-0.0585,-0.0599,0,0,0,0,0,0,0.0174,0.0167,0.0186,0.0152,0.0143,0.0108,0.0085,0.0047,0.0023,-0.0028,-0.0089,-0.0154,-0.0267,-0.0239,-0.0389,-0.0414,-0.0411,-0.0593,-0.0594,-0.0589,-0.0587,-0.0585,-0.0598,0,0,0,0,0]}]]